This is the latest recevied weather packets stored in our database for station/object EA1L-13. If no packets are shown the sender has not sent any weather packets the latest 10 day(s).
| Time | Temp. | Humidity | Pressure | Rain* | Wind** | Luminosity | Snow |
|---|---|---|---|---|---|---|---|
| 1778063405 | 13.33° C | 99% | 1012.9 hPa | 0 mm | - | - | - |
| 1778062504 | 13.89° C | 100% | 1012.9 hPa | 0 mm | - | - | - |
| 1778061605 | 13.89° C | 100% | 1013 hPa | 0 mm | - | - | - |
| 1778060704 | 13.89° C | 100% | 1013 hPa | 0 mm | - | - | - |
| 1778059804 | 13.89° C | 100% | 1013 hPa | 0 mm | - | - | - |
| 1778058904 | 13.33° C | 100% | 1013.1 hPa | 0 mm | - | - | - |
| 1778058004 | 13.33° C | 100% | 1012.9 hPa | 0 mm | - | - | - |
| 1778057104 | 13.33° C | 100% | 1013.1 hPa | 0 mm | - | - | - |
| 1778056205 | 12.78° C | 100% | 1013.1 hPa | 0 mm | - | - | - |
| 1778055304 | 12.78° C | 100% | 1013.2 hPa | 0 mm | - | - | - |
| 1778054404 | 12.22° C | 100% | 1013.1 hPa | 0 mm | - | - | - |
| 1778053505 | 12.22° C | 100% | 1013.1 hPa | 0 mm | - | - | - |
| 1778052605 | 11.67° C | 100% | 1013 hPa | 0 mm | - | - | - |
| 1778051704 | 11.67° C | 100% | 1013 hPa | 0 mm | - | - | - |
| 1778050805 | 11.11° C | 100% | 1012.9 hPa | 0.25 mm | - | - | - |
| 1778049904 | 10.56° C | 100% | 1012.8 hPa | 0.25 mm | - | - | - |
| 1778049005 | 10.56° C | 100% | 1012.7 hPa | 0.25 mm | - | - | - |
| 1778048104 | 10.56° C | 100% | 1012.8 hPa | 0.25 mm | - | - | - |
| 1778047204 | 10.56° C | 100% | 1012.8 hPa | 0 mm | - | - | - |
| 1778046304 | 10° C | 100% | 1012.7 hPa | 0 mm | - | - | - |
| 1778045405 | 10° C | 100% | 1012.6 hPa | 0 mm | - | - | - |
| 1778044504 | 10° C | 100% | 1012.4 hPa | 0 mm | - | - | - |
| 1778043604 | 10° C | 100% | 1012.4 hPa | 0 mm | - | - | - |
| 1778042704 | 10° C | 100% | 1012.5 hPa | 0 mm | - | - | - |
| 1778041805 | 10° C | 100% | 1012.6 hPa | 0 mm | - | - | - |
* Rain latest hour (hover to see other rain measurements)
** Current wind speed in m/s (hover to see current wind gust speed)